Regional Weather Roundup
Issued by NWS Raleigh/Durham, NC

Home | Current Version | Previous Version | Text Only | Print | Product List | Glossary On
Versions: 1 2 3 4 5 6 7 8 9 10 11 12 13 14 15 16 17 18 19 20 21 22 23 24 25 26 27 28 29 30 31 32 33 34 35 36 37 38 39 40 41 42 43 44 45 46 47 48 49 50
000
ASUS42 KRAH 171810
RWRRAH
NORTH CAROLINA WEATHER ROUNDUP
NATIONAL WEATHER SERVICE RALEIGH NC
100 PM EST WED JAN 17 2018

NOTE: "FAIR" INDICATES FEW OR NO CLOUDS BELOW 12,000 FEET WITH NO
SIGNIFICANT WEATHER AND/OR OBSTRUCTIONS TO VISIBILITY.

NCZ001-053-055-056-065-067-171900-
WESTERN NORTH CAROLINA

CITY           SKY/WX    TMP DP  RH WIND       PRES   REMARKS
ASHEVILLE      MIX PCPN  19   9  65 N26G36    30.23F WCI   1
JEFFERSON      FLURRIES  14   8  76 W8        30.14F WCI   3
MORGANTON      CLOUDY    28  23  83 N7        30.26F WCI  21
HICKORY        LGT SNOW  28  26  92 N6        30.22F VSB 3/4 WCI  22
RUTHERFORDTON  CLOUDY    28  21  75 N6        30.24F WCI  21
MOUNT AIRY     LGT SNOW  24  19  82 NW9       30.27F VSB 3/4 WCI  14
BOONE          LGT SNOW  13   8  82 NW14G25   30.16F VSB 3/4 WCI  -2
$$

NCZ021-022-025-041-071-084-088-171900-
CENTRAL NORTH CAROLINA

CITY           SKY/WX    TMP DP  RH WIND       PRES   REMARKS
CHARLOTTE      SNOW      30  28  92 N9        30.22F VSB 1/2 WCI  22
GREENSBORO     SNOW      26  25  96 N9        30.21F VSB 1/2 WCI  17
WINSTON-SALEM  SNOW      26  23  88 N13       30.23F VSB 1/2 WCI  15
RALEIGH-DURHAM HVY SNOW  32  31  96 NE9       30.22F VSB 1/4 WCI  24
FORT BRAGG     MIX PCPN  37  34  87 E8        30.19F FOG     WCI  31
FAYETTEVILLE   LGT RAIN  39  36  89 NE10      30.20F FOG     WCI  32
BURLINGTON     SNOW      31  29  92 N7        30.21F VSB 1/4 WCI  24
LAURINBURG     LGT RAIN  37  35  92 E14       30.19F FOG     WCI  28
$$

NCZ011-015-027-028-043-044-047-080-103-171900-
NORTHEASTERN NORTH CAROLINA

CITY           SKY/WX    TMP DP  RH WIND       PRES   REMARKS
ROCKY MT-WILSO CLOUDY    37  31  78 N10       30.24F WCI  30
GREENVILLE     FAIR      45  32  61 NE10      30.21F
WASHINGTON     PTSUNNY   45  31  58 N10       30.21F
ELIZABETH CITY FAIR      40  36  86 N17       30.25F WCI  31
MANTEO         CLOUDY    39  35  83 NE15      30.23F WCI  31
CAPE HATTERAS  CLOUDY    42  38  85 N8        30.19F
$$

NCZ078-087-090-091-093-098-101-171900-
SOUTHEASTERN NORTH CAROLINA

CITY           SKY/WX    TMP DP  RH WIND       PRES   REMARKS
LUMBERTON      LGT RAIN  39  33  79 N13       30.19F WCI  31
GOLDSBORO      CLOUDY    42  29  58 N13       30.19F
KENANSVILLE    PTSUNNY   46  30  53 N9        30.18F
NEW BERN       FAIR      48  32  53 NE12      30.18F
CHERRY POINT   NOT AVBL
BEAUFORT       CLOUDY    49  32  52 NE13      30.16F
JACKSONVILLE   FAIR      53  30  41 E5        30.14F
WILMINGTON     FAIR      53  29  39 E9        30.15F
$$




USA.gov is the U.S. government's official web portal to all federal, state and local government web resources and services.